Clinton-Sherman, OK

4:20 AM CDT on August 21, 2017 (GMT -0500)
Clinton-Sherman

Weather History for KCSM - February, 2013

Change the Weather History Date:

Saturday, February 9, 2013

  Actual Average Record
Temperature  
Mean Temperature 43 °F -  
Max Temperature 51 °F 50 °F 75 °F (2000)
Min Temperature 36 °F 30 °F 3 °F (2011)
Degree Days  
Heating Degree Days 22    
Moisture  
Dew Point 43 °F    
Average Humidity 90    
Maximum Humidity 100    
Minimum Humidity 62    
Precipitation  
Precipitation 0.09 in - - ()
Sea Level Pressure  
Sea Level Pressure 29.79 in    
Wind  
Wind Speed 20 mph (SSE)    
Max Wind Speed 31 mph    
Max Gust Speed 39 mph    
Visibility 4 miles    
Events Fog , Rain , Thunderstorm    
Averages and records for this station are not official NWS values.
T = Trace of Precipitation, MM = Missing Value Source: NWS Daily Summary

Daily Weather History Graph

Daily Weather History Graph

Search for Another Location

Airport or City:

Trip Planner

Search our weather history database for the weather conditions in past years. The results will help you decide how hot, cold, wet, or windy it might be!

Date:

Astronomy

Feb. 09, 2013 Rise Set
Actual Time 7:29 AM CST 6:13 PM CST
Civil Twilight 7:02 AM CST 6:39 PM CST
Nautical Twilight 6:32 AM CST 7:09 PM CST
Astronomical Twilight 6:03 AM CST 7:39 PM CST
Moon 6:42 AM CST (2/9) 5:56 PM CST (2/9)
Length of Visible Light 11h 37m
Length of Day
10h 44m
Waning Crescent, 0% of the Moon is Illuminated
Feb 9
Waning Crescent
Feb 10
New
Feb 17
First Quarter
Feb 25
Full
Mar 4
Last Quarter

Hourly Weather History & Observations

Time (CST) Temp. Windchill Dew Point Humidity Pressure Visibility Wind Dir Wind Speed Gust Speed Precip Events Conditions
12:53 AM 39.0 °F 31.8 °F 28.9 °F 67% 30.08 in 10.0 mi SE 11.5 mph - N/A   Clear
1:53 AM 37.0 °F 29.8 °F 28.9 °F 73% 30.06 in 10.0 mi SE 10.4 mph - N/A   Clear
2:53 AM 37.0 °F 29.8 °F 28.9 °F 73% 30.03 in 10.0 mi SE 10.4 mph - N/A   Clear
3:53 AM 36.0 °F 27.5 °F 28.9 °F 76% 30.01 in 10.0 mi South 12.7 mph - N/A   Clear
4:53 AM 42.1 °F 33.3 °F 30.0 °F 62% 29.99 in 10.0 mi South 19.6 mph - N/A   Clear
5:53 AM 42.1 °F 34.2 °F 30.9 °F 65% 29.99 in 10.0 mi SSE 16.1 mph - N/A   Clear
6:53 AM 43.0 °F 34.5 °F 35.1 °F 74% 29.97 in 10.0 mi SSE 19.6 mph 25.3 mph N/A   Mostly Cloudy
7:53 AM 45.0 °F 36.2 °F 39.9 °F 82% 29.96 in 8.0 mi SSE 24.2 mph 33.4 mph N/A   Mostly Cloudy
8:53 AM 46.9 °F - 39.9 °F 77% 29.95 in 10.0 mi SSE 27.6 mph 35.7 mph N/A   Overcast
9:53 AM 46.9 °F - 41.0 °F 80% 29.95 in 9.0 mi SSE 26.5 mph 32.2 mph N/A   Overcast
10:53 AM 46.9 °F - 42.1 °F 83% 29.93 in 8.0 mi SSE 26.5 mph 34.5 mph N/A   Overcast
11:13 AM 46.4 °F 37.5 °F 42.8 °F 87% 29.92 in 8.0 mi SSE 27.6 mph 38.0 mph N/A   Overcast
11:53 AM 46.0 °F 36.9 °F 43.0 °F 89% 29.91 in 5.0 mi SSE 28.8 mph 34.5 mph N/A   Overcast
12:51 PM 46.4 °F 37.7 °F 44.6 °F 93% 29.85 in 3.0 mi SSE 26.5 mph 36.8 mph 0.00 in   Overcast
12:53 PM 46.9 °F - 44.1 °F 90% 29.86 in 3.0 mi SSE 26.5 mph 36.8 mph 0.00 in   Overcast
1:18 PM 46.4 °F 37.7 °F 44.6 °F 93% 29.82 in 2.5 mi SSE 26.5 mph 36.8 mph N/A   Overcast
1:31 PM 46.4 °F 37.4 °F 44.6 °F 93% 29.81 in 1.0 mi SSE 28.8 mph 35.7 mph N/A   Overcast
1:53 PM 46.0 °F 36.7 °F 44.1 °F 93% 29.80 in 1.0 mi SSE 29.9 mph 38.0 mph 0.00 in Rain Light Rain
2:53 PM 46.0 °F 37.2 °F 45.0 °F 96% 29.78 in 1.5 mi SSE 26.5 mph - 0.00 in Rain Light Rain
3:42 PM 44.6 °F 35.3 °F 44.6 °F 100% 29.73 in 2.0 mi SSE 26.5 mph 35.7 mph 0.00 in Rain Light Rain
3:51 PM 44.6 °F 35.3 °F 44.6 °F 100% 29.73 in 1.5 mi SSE 26.5 mph 34.5 mph 0.00 in Rain Light Rain
3:53 PM 45.0 °F 36.6 °F 44.1 °F 97% 29.74 in 1.5 mi SSE 21.9 mph 34.5 mph 0.00 in Rain Light Rain
4:50 PM 44.6 °F 35.5 °F 44.6 °F 100% 29.71 in 0.8 mi SSE 25.3 mph 33.4 mph 0.00 in Rain Light Rain
4:53 PM 45.0 °F 36.0 °F 44.1 °F 97% 29.70 in 0.8 mi SSE 25.3 mph 32.2 mph 0.00 in Rain Light Rain
5:02 PM 44.6 °F 35.1 °F 44.6 °F 100% 29.70 in 0.5 mi SSE 27.6 mph 34.5 mph 0.00 in Fog , Rain Light Rain
5:53 PM 46.0 °F 37.4 °F 45.0 °F 96% 29.69 in 0.5 mi SSE 25.3 mph 33.4 mph 0.00 in Fog Fog
6:53 PM 46.0 °F 37.4 °F 45.0 °F 96% 29.68 in 0.2 mi SSE 25.3 mph 32.2 mph 0.00 in Fog , Rain Light Rain
7:04 PM 46.4 °F 38.1 °F 44.6 °F 93% 29.68 in 0.2 mi SSE 24.2 mph - 0.00 in Fog , Rain Light Rain
7:53 PM 46.9 °F - 46.0 °F 97% 29.64 in 0.2 mi SSE 31.1 mph 39.1 mph 0.00 in Fog , Rain Light Rain
8:51 PM 48.2 °F - 48.2 °F 100% 29.63 in 0.5 mi SSE 25.3 mph 36.8 mph 0.00 in Fog , Rain Light Rain
8:53 PM 48.9 °F - 48.0 °F 97% 29.62 in 0.5 mi SSE 28.8 mph 34.5 mph 0.00 in Fog , Rain Light Rain
9:12 PM 48.2 °F - 48.2 °F 100% 29.63 in 0.8 mi SSE 27.6 mph 34.5 mph 0.00 in Rain Light Rain
9:34 PM 50.0 °F - 48.2 °F 94% 29.65 in 1.0 mi SSE 26.5 mph 34.5 mph 0.00 in Rain Light Rain
9:53 PM 50.0 °F - 48.9 °F 96% 29.66 in 1.5 mi SSE 21.9 mph 27.6 mph 0.00 in   Overcast
10:11 PM 50.0 °F - 50.0 °F 100% 29.65 in 2.0 mi SSE 21.9 mph 32.2 mph 0.00 in Rain Light Rain
10:19 PM 50.0 °F - 50.0 °F 100% 29.65 in 1.8 mi SSE 18.4 mph 28.8 mph 0.00 in Rain Light Rain
10:29 PM 50.0 °F - 50.0 °F 100% 29.64 in 2.0 mi SSE 16.1 mph 25.3 mph 0.00 in Rain Rain
10:39 PM 50.0 °F - 50.0 °F 100% 29.68 in 2.5 mi SSW 20.7 mph 25.3 mph 0.01 in Rain , Thunderstorm Thunderstorms and Rain
10:53 PM 50.0 °F - 50.0 °F 100% 29.69 in 4.0 mi SSW 16.1 mph 31.1 mph 0.09 in Rain , Thunderstorm Light Thunderstorms and Rain
11:03 PM 50.0 °F - 50.0 °F 100% 29.68 in 10.0 mi SSW 13.8 mph - 0.00 in Thunderstorm Thunderstorm
11:14 PM 50.0 °F - 50.0 °F 100% 29.68 in 10.0 mi SSW 12.7 mph - 0.00 in   Overcast
11:53 PM 51.1 °F - 48.9 °F 92% 29.68 in 10.0 mi SSW 13.8 mph - 0.00 in   Overcast